This is the latest recevied weather packets stored in our database for station/object YB3RDW-13. If no packets are shown the sender has not sent any weather packets the latest 1 day(s).
| Time | Temp. | Humidity | Pressure | Rain* | Wind** | Luminosity | Snow |
|---|---|---|---|---|---|---|---|
| 1778076120 | 29.44° C | 80% | 1012 hPa | 0 mm | - | 0 W/m² | - |
| 1778074918 | 29.44° C | 80% | 1012 hPa | 0 mm | - | 0 W/m² | - |
| 1778074618 | 29.44° C | 80% | 1012 hPa | 0 mm | - | 0 W/m² | - |
| 1778073718 | 29.44° C | 80% | 1012 hPa | 0 mm | - | 0 W/m² | - |
| 1778073420 | 29.44° C | 79% | 1012 hPa | 0 mm | - | 0 W/m² | - |
| 1778072218 | 29.44° C | 79% | 1012 hPa | 0 mm | - | 0 W/m² | - |
| 1778071318 | 30° C | 77% | 1012 hPa | 0 mm | - | 0 W/m² | - |
| 1778071018 | 30° C | 76% | 1012 hPa | 0 mm | - | 0 W/m² | - |
| 1778070717 | 30° C | 75% | 1012 hPa | 0 mm | - | 0 W/m² | - |
| 1778069818 | 30° C | 73% | 1011 hPa | 0 mm | - | 0 W/m² | - |
| 1778068617 | 30° C | 72% | 1010 hPa | 0 mm | - | 0 W/m² | - |
| 1778067423 | 30° C | 72% | 1010 hPa | 0 mm | - | 0 W/m² | - |
| 1778065320 | 30° C | 70% | 1010 hPa | 0 mm | - | 0 W/m² | - |
| 1778064121 | 30.56° C | 69% | 1010 hPa | 0 mm | - | 0 W/m² | - |
| 1778063520 | 30.56° C | 67% | 1009 hPa | 0 mm | - | 1 W/m² | - |
| 1778062918 | 30.56° C | 66% | 1009 hPa | 0 mm | - | 3 W/m² | - |
| 1778061718 | 31.67° C | 62% | 1009 hPa | 0 mm | - | 19 W/m² | - |
| 1778060518 | 31.67° C | 61% | 1009 hPa | 0 mm | - | 32 W/m² | - |
| 1778059618 | 32.22° C | 58% | 1009 hPa | 0 mm | - | 51 W/m² | - |
| 1778058420 | 32.22° C | 57% | 1009 hPa | 0 mm | - | 78 W/m² | - |
| 1778057817 | 32.78° C | 57% | 1009 hPa | 0 mm | - | 87 W/m² | - |
| 1778057218 | 32.78° C | 57% | 1009 hPa | 0 mm | - | 120 W/m² | - |
| 1778056618 | 32.78° C | 55% | 1009 hPa | 0 mm | - | 151 W/m² | - |
| 1778055418 | 32.78° C | 57% | 1009 hPa | 0 mm | - | 207 W/m² | - |
| 1778055117 | 32.78° C | 57% | 1009 hPa | 0 mm | - | 207 W/m² | - |
* Rain latest hour (hover to see other rain measurements)
** Current wind speed in m/s (hover to see current wind gust speed)